Weather History for Fort Myers, FL

Change the Weather History Date:

Tuesday, December 18, 2012

  Actual Average Record
Temperature  
Mean Temperature 73 °F 66 °F  
Max Temperature 82 °F 76 °F 85 °F (1931)
Min Temperature 64 °F 56 °F 35 °F (1973)
Degree Days  
Heating Degree Days 0 3  
Month to date heating degree days 0 32  
Since 1 July heating degree days 15 50  
Cooling Degree Days 8 4  
Month to date cooling degree days 130 79  
Year to date cooling degree days 4343 3942  
Growing Degree Days 24 (Base 50)    
Moisture  
Dew Point 67 °F    
Average Humidity 90    
Maximum Humidity 100    
Minimum Humidity 62    
Precipitation  
Precipitation 0.00 in 0.06 in 1.15 in (1954)
Month to date precipitation 1.87 0.91  
Year to date precipitation 49.30 55.13  
Sea Level Pressure  
Sea Level Pressure 29.96 in    
Wind  
Wind Speed 5 mph (WSW)    
Max Wind Speed 15 mph    
Max Gust Speed 18 mph    
Visibility 5 miles    
Events Fog    
T = Trace of Precipitation, MM = Missing Value Source: NWS Daily Summary

Daily Weather History Graph

Daily Weather History Graph

Search for Another Location

Airport:

Trip Planner

Search our weather history database for the weather conditions in past years. The results will help you decide how hot, cold, wet, or windy it might be!

Date:

Astronomy

Dec. 18, 2012 Rise Set
Actual Time 7:10 AM EST 5:38 PM EST
Civil Twilight 6:44 AM EST 6:04 PM EST
Nautical Twilight 6:15 AM EST 6:32 PM EST
Astronomical Twilight 5:47 AM EST 7:01 PM EST
Moon 11:18 AM EST (12/18) 11:30 PM EST (12/18)
Length of Visible Light 11h 19m
Length of Day
10h 28m
Waxing Crescent, 34% of the Moon is Illuminated
Dec 18
Waxing Crescent
Dec 20
First Quarter
Dec 28
Full
Jan 4
Last Quarter
Jan 11
New

Hourly Weather History & Observations

Time (EST) Temp. Heat Index Dew Point Humidity Pressure Visibility Wind Dir Wind Speed Gust Speed Precip Events Conditions
12:04 AM 69.8 °F - 68.0 °F 94% 29.94 in 2.5 mi Calm Calm - N/A   Clear
12:30 AM 69.8 °F - 69.8 °F 100% 29.93 in 5.0 mi South 3.5 mph - N/A   Clear
12:53 AM 70.0 °F - 69.1 °F 97% 29.93 in 6.0 mi South 3.5 mph - N/A   Clear
1:53 AM 69.1 °F - 68.0 °F 96% 29.93 in 6.0 mi Calm Calm - N/A   Clear
2:53 AM 69.1 °F - 68.0 °F 96% 29.92 in 6.0 mi Calm Calm - N/A   Clear
3:32 AM 69.8 °F - 68.0 °F 94% 29.91 in 1.5 mi Calm Calm - N/A   Clear
3:34 AM 68.0 °F - 66.2 °F 94% 29.91 in 0.8 mi Calm Calm - N/A   Mist
3:53 AM 66.9 °F - 66.0 °F 97% 29.91 in 0.2 mi Calm Calm - N/A Fog Fog
4:30 AM 68.0 °F - 66.2 °F 94% 29.92 in 2.0 mi SSW 3.5 mph - N/A   Mostly Cloudy
4:33 AM 68.0 °F - 66.2 °F 94% 29.92 in 3.0 mi SSW 3.5 mph - N/A   Scattered Clouds
4:48 AM 68.0 °F - 68.0 °F 100% 29.92 in 1.8 mi Calm Calm - N/A   Partly Cloudy
4:53 AM 68.0 °F - 66.9 °F 96% 29.93 in 0.8 mi Calm Calm - N/A   Mist
5:01 AM 68.0 °F - 66.2 °F 94% 29.92 in 0.2 mi Calm Calm - N/A Fog Fog
5:24 AM 69.8 °F - 68.0 °F 94% 29.93 in 2.5 mi SSW 3.5 mph - N/A   Mostly Cloudy
5:26 AM 69.8 °F - 68.0 °F 94% 29.93 in 4.0 mi South 3.5 mph - N/A   Scattered Clouds
5:53 AM 68.0 °F - 68.0 °F 100% 29.95 in 2.5 mi Calm Calm - N/A   Partly Cloudy
6:02 AM 68.0 °F - 68.0 °F 100% 29.95 in 1.0 mi Calm Calm - N/A   Mist
6:10 AM 66.2 °F - 66.2 °F 100% 29.95 in 0.2 mi Calm Calm - N/A Fog Fog
6:34 AM 66.2 °F - 66.2 °F 100% 29.97 in 0.2 mi Calm Calm - N/A Fog Fog
6:53 AM 66.9 °F - 66.0 °F 97% 29.98 in 0.2 mi Calm Calm - N/A Fog Fog
7:09 AM 66.2 °F - 66.2 °F 100% 29.98 in 0.2 mi Calm Calm - N/A Fog Fog
7:21 AM 66.2 °F - 66.2 °F 100% 29.98 in 1.2 mi Calm Calm - N/A   Scattered Clouds
7:25 AM 66.2 °F - 66.2 °F 100% 29.98 in 1.0 mi Calm Calm - N/A   Mist
7:39 AM 66.2 °F - 66.2 °F 100% 29.98 in 3.0 mi Calm Calm - N/A Fog Shallow Fog
7:53 AM 68.0 °F - 66.9 °F 96% 29.99 in 5.0 mi Calm Calm - N/A   Clear
8:53 AM 72.0 °F - 71.1 °F 97% 30.00 in 10.0 mi SW 5.8 mph - N/A   Clear
9:18 AM 73.4 °F - 71.6 °F 94% 30.00 in 10.0 mi SW 5.8 mph - N/A   Mostly Cloudy
9:53 AM 75.9 °F - 72.0 °F 87% 30.01 in 10.0 mi WSW 10.4 mph - N/A   Scattered Clouds
10:53 AM 78.1 °F - 70.0 °F 76% 30.01 in 10.0 mi West 8.1 mph - N/A   Scattered Clouds
11:53 AM 79.0 °F - 68.0 °F 69% 29.99 in 10.0 mi West 9.2 mph - N/A   Partly Cloudy
12:53 PM 80.1 °F 82.7 °F 68.0 °F 67% 29.97 in 10.0 mi WNW 12.7 mph - N/A   Scattered Clouds
1:53 PM 81.0 °F 83.3 °F 66.9 °F 62% 29.96 in 10.0 mi West 12.7 mph - N/A   Partly Cloudy
2:53 PM 79.0 °F - 68.0 °F 69% 29.95 in 10.0 mi WNW 11.5 mph - N/A   Clear
3:53 PM 78.1 °F - 68.0 °F 71% 29.96 in 10.0 mi WNW 11.5 mph - N/A   Scattered Clouds
4:53 PM 77.0 °F - 66.0 °F 69% 29.97 in 10.0 mi WNW 9.2 mph - N/A   Clear
5:53 PM 73.9 °F - 66.9 °F 79% 29.97 in 10.0 mi West 5.8 mph - N/A   Clear
6:53 PM 72.0 °F - 66.0 °F 81% 29.99 in 10.0 mi WNW 3.5 mph - N/A   Clear
7:53 PM 71.1 °F - 66.0 °F 84% 30.01 in 10.0 mi NW 4.6 mph - N/A   Clear
8:53 PM 70.0 °F - 66.9 °F 90% 30.02 in 10.0 mi WNW 3.5 mph - N/A   Clear
9:53 PM 68.0 °F - 66.0 °F 93% 30.03 in 10.0 mi Calm Calm - N/A   Clear
10:53 PM 68.0 °F - 64.9 °F 90% 30.04 in 10.0 mi Calm Calm - N/A   Clear
11:53 PM 66.0 °F - 63.0 °F 90% 30.04 in 10.0 mi Calm Calm - N/A   Clear